date,time,DOY,Ta_1_1_1,Pa_1_1_1,RH_1_1_1,LWin_1_1_1,LWout_1_1_1,SWin_1_1_1,SWout_1_1_1,PPFD_1_1_1,MWS_1_1_1,WD_1_1_1,SWC_1_1_1,Ts_1_1_1
[yyyy-mm-dd],[HH:MM],[ddd.ddd],[K],[Pa],[%],[W+1m-2],[W+1m-2],[W+1m-2],[W+1m-2],[µmol+1m-2s-1],[m+1s-1],[deg],[m+3m-3],[K]
2018-08-05,00:30,217.020,292.14300000000003,94439.066666666666,88.055333333333337,412.45833333333326,410.58833333333342,4.0823333333333336,16.904333333333330,36.941666666666670,0.0000000000000000,0.0000000000000000,0.23000000000000018,290.12366666666662
2018-08-05,01:00,217.041,292.25466666666659,94438.000000000000,88.833333333333329,413.46300000000002,411.82133333333331,2.5466666666666669,9.2366666666666664,18.793666666666663,0.0000000000000000,0.0000000000000000,0.23000000000000018,290.07600000000002
2018-08-05,01:30,217.062,292.44566666666674,94441.233333333337,87.479333333333301,414.32966666666675,410.78133333333335,1.1766666666666665,1.7903333333333336,3.9719999999999995,0.43666666666666665,6.2666666666666666,0.23000000000000018,290.02700000000004
2018-08-05,02:00,217.083,292.39566666666667,94452.566666666666,85.786999999999992,414.03366666666676,406.71833333333342,0.43333333333333335,-0.65600000000000003,0.27600000000000002,0.0000000000000000,0.0000000000000000,0.23000000000000018,289.98599999999993
2018-08-05,02:30,217.104,292.01366666666667,94444.466666666660,81.006333333333330,411.19166666666655,388.42333333333329,0.43400000000000000,-1.4906666666666666,3.30000000000000016E-002,0.0000000000000000,0.0000000000000000,0.23000000000000018,289.94700000000006
2018-08-05,03:00,217.124,291.72666666666669,94478.833333333328,79.582666666666668,410.47300000000001,398.05333333333328,0.42133333333333328,-0.37999999999999995,1.66666666666666721E-003,0.0000000000000000,0.0000000000000000,0.23000000000000018,289.89500000000010
2018-08-05,03:30,217.145,291.70766666666663,94479.433333333334,78.811999999999998,410.48966666666666,398.41066666666671,0.36000000000000004,-0.26766666666666672,1.46666666666666681E-002,0.88333333333333330,14.288999999999998,0.23000000000000018,289.83266666666674
2018-08-05,04:00,217.166,291.61433333333349,94488.800000000003,79.225333333333339,409.61766666666665,386.37100000000004,0.45499999999999996,-0.94799999999999995,2.06666666666666735E-002,0.49666666666666670,7.8109999999999991,0.23000000000000018,289.76766666666668
2018-08-05,04:30,217.187,291.51800000000009,94511.233333333337,79.777333333333303,408.92566666666670,382.97466666666674,0.52733333333333343,-1.0379999999999998,2.10000000000000048E-002,0.0000000000000000,0.0000000000000000,0.23000000000000018,289.70300000000003
2018-08-05,05:00,217.208,291.30866666666685,94514.466666666660,80.930333333333323,407.11399999999992,363.77966666666663,0.72866666666666657,-2.0860000000000003,2.66666666666666684E-002,0.0000000000000000,0.0000000000000000,0.23000000000000018,289.64500000000010
2018-08-05,05:30,217.229,291.24100000000004,94522.800000000003,81.681333333333299,406.29166666666663,358.89033333333333,0.75866666666666649,-2.5319999999999991,2.26666666666666718E-002,0.0000000000000000,0.0000000000000000,0.23000000000000018,289.58366666666660
2018-08-05,06:00,217.249,291.22633333333340,94536.899999999994,82.591666666666683,406.22966666666667,357.82066666666674,0.80133333333333323,-2.5023333333333326,3.00000000000000128E-002,0.0000000000000000,0.0000000000000000,0.23000000000000018,289.52600000000012
2018-08-05,06:30,217.270,291.11000000000018,94563.533333333340,83.834000000000017,405.53433333333322,356.21966666666674,0.81933333333333336,-2.6106666666666665,2.66666666666666718E-002,0.0000000000000000,0.0000000000000000,0.23000000000000018,289.47299999999996
2018-08-05,07:00,217.291,291.02766666666685,94570.600000000006,84.731666666666669,404.92099999999994,355.05799999999999,0.94266666666666665,-2.5690000000000000,3.10000000000000137E-002,0.78000000000000003,17.411333333333335,0.23000000000000018,289.42466666666667
2018-08-05,07:30,217.312,290.95999999999998,94568.933333333334,85.717666666666688,404.54666666666645,353.33933333333329,0.99533333333333329,-2.6263333333333332,3.26666666666666702E-002,0.0000000000000000,0.0000000000000000,0.23000000000000018,289.38400000000001
2018-08-05,08:00,217.333,290.91866666666664,94561.266666666663,86.641000000000005,404.38199999999995,352.18066666666658,0.97933333333333306,-2.6513333333333331,3.56666666666666729E-002,0.27999999999999997,4.4109999999999996,0.23000000000000018,289.34633333333346
2018-08-05,08:30,217.354,290.80866666666680,94585.699999999997,87.772666666666666,403.92700000000008,351.84333333333331,0.96600000000000008,-2.6653333333333338,3.90000000000000208E-002,0.0000000000000000,0.0000000000000000,0.23000000000000018,289.30700000000007
2018-08-05,09:00,217.374,290.71766666666667,94605.433333333334,88.608999999999995,403.46633333333335,352.81999999999994,0.95200000000000007,-2.5233333333333334,3.53333333333333346E-002,0.0000000000000000,0.0000000000000000,0.23000000000000018,289.28033333333343
2018-08-05,09:30,217.395,290.59433333333351,94580.866666666669,89.216333333333324,402.81533333333329,351.34666666666669,1.0140000000000000,-2.5850000000000004,5.00000000000000167E-002,0.0000000000000000,0.0000000000000000,0.23000000000000018,289.24600000000004
2018-08-05,10:00,217.416,290.64333333333337,94563.066666666666,89.519666666666652,403.31433333333331,361.15600000000001,1.2530000000000001,-2.0293333333333328,3.80000000000000060E-002,0.0000000000000000,0.0000000000000000,0.23000000000000018,289.21933333333340
2018-08-05,10:30,217.437,290.61766666666676,94599.300000000003,89.563000000000031,403.23133333333334,364.11499999999995,0.59366666666666690,-2.1726666666666667,0.29800000000000004,0.0000000000000000,0.0000000000000000,0.23000000000000018,289.18833333333345
2018-08-05,11:00,217.458,290.12333333333351,94634.000000000000,91.021333333333345,400.78766666666672,354.05233333333331,1.4786666666666664,3.1136666666666666,9.8706666666666667,0.0000000000000000,0.0000000000000000,0.23000000000000018,289.16266666666667
2018-08-05,11:30,217.479,290.23000000000008,94616.533333333340,91.053666666666672,401.46333333333331,355.65633333333341,6.4766666666666657,30.130666666666670,53.281666666666673,0.0000000000000000,0.0000000000000000,0.23000000000000018,289.13900000000007
2018-08-05,12:00,217.499,290.33333333333331,94613.166666666672,90.913333333333341,402.79933333333338,353.22033333333337,15.289333333333332,83.465333333333348,146.45500000000001,0.0000000000000000,0.0000000000000000,0.23000000000000018,289.11399999999992
2018-08-05,12:30,217.520,290.68466666666677,94625.533333333340,90.865666666666655,405.63799999999998,360.06533333333329,18.863333333333337,110.01999999999998,211.76966666666664,0.0000000000000000,0.0000000000000000,0.23000000000000018,289.09300000000002
2018-08-05,13:00,217.541,291.22700000000003,94620.066666666666,90.545333333333332,409.97666666666669,360.02033333333327,37.894666666666673,220.28833333333333,409.55600000000010,0.0000000000000000,0.0000000000000000,0.22933333333333347,289.08266666666663
2018-08-05,13:30,217.562,291.95600000000002,94635.233333333337,89.251666666666679,415.21566666666655,397.32200000000000,32.119000000000007,192.10133333333332,370.40799999999996,0.0000000000000000,0.0000000000000000,0.21999999999999995,289.08600000000007
2018-08-05,14:00,217.583,292.12666666666672,94657.600000000006,89.980000000000018,416.36833333333328,411.36566666666664,28.129000000000005,165.09566666666666,325.33200000000005,0.0000000000000000,0.0000000000000000,0.21999999999999995,289.11366666666657
2018-08-05,14:30,217.604,292.47533333333348,94632.100000000006,89.269666666666652,417.93800000000016,403.39966666666663,26.786666666666669,155.95700000000002,317.12500000000000,0.13000000000000000,2.2776666666666667,0.21999999999999995,289.16833333333341
2018-08-05,15:00,217.624,293.26966666666669,94598.533333333340,87.212666666666721,423.92666666666679,394.73466666666678,42.740333333333332,253.90499999999994,503.80566666666675,9.66666666666666646E-002,1.9776666666666667,0.21999999999999995,289.23433333333338
2018-08-05,15:30,217.645,293.73766666666677,94623.600000000006,86.566333333333333,424.15366666666677,407.42000000000002,24.570666666666668,140.33599999999998,297.01900000000006,7.00000000000000067E-002,1.8999999999999999,0.21999999999999995,289.31166666666672
2018-08-05,16:00,217.666,294.47899999999998,94614.100000000006,84.260333333333350,432.93033333333335,411.49900000000002,70.686999999999998,427.96933333333334,848.75333333333333,0.0000000000000000,0.0000000000000000,0.21999999999999995,289.39233333333334
2018-08-05,16:30,217.687,295.75866666666667,94607.433333333334,80.018000000000001,443.17099999999999,404.77966666666663,110.33233333333334,688.71933333333334,1380.5510000000002,0.0000000000000000,0.0000000000000000,0.21999999999999995,289.50233333333341
2018-08-05,17:00,217.708,296.91866666666670,94590.399999999994,76.085999999999999,448.48900000000009,415.49866666666657,94.399666666666633,602.57766666666669,1221.9140000000000,4.33333333333333348E-002,1.7109999999999999,0.21999999999999995,289.65033333333338
2018-08-05,17:30,217.729,297.34533333333337,94601.899999999994,74.903666666666680,452.95499999999998,424.12000000000000,123.47300000000001,776.37000000000012,1536.5033333333333,0.0000000000000000,0.0000000000000000,0.21999999999999995,289.82800000000003
2018-08-05,18:00,217.749,297.66866666666675,94592.333333333328,73.159000000000006,455.30699999999996,415.58166666666665,119.00000000000000,769.54099999999994,1596.4020000000003,0.10000000000000001,2.0110000000000001,0.21999999999999995,290.02766666666668
2018-08-05,18:30,217.770,298.16966666666679,94563.800000000003,69.946333333333342,458.47800000000007,419.93633333333344,125.06400000000001,788.55933333333326,1565.5216666666672,0.0000000000000000,0.0000000000000000,0.21999999999999995,290.24433333333337
2018-08-05,19:00,217.791,298.33233333333334,94572.066666666666,70.247666666666660,455.60333333333335,425.93866666666679,87.063333333333333,551.55833333333351,1153.0289999999998,0.0000000000000000,0.0000000000000000,0.21999999999999995,290.45699999999999
2018-08-05,19:30,217.812,299.16566666666660,94584.533333333340,65.941000000000003,464.30133333333328,418.11700000000002,134.16533333333334,834.17933333333326,1688.5816666666663,0.0000000000000000,0.0000000000000000,0.21999999999999995,290.65400000000005
2018-08-05,20:00,217.833,299.42600000000004,94580.800000000003,60.704333333333331,464.43933333333337,412.11699999999990,130.23966666666666,822.30300000000011,1687.1476666666663,0.0000000000000000,0.0000000000000000,0.21999999999999995,290.85799999999995
2018-08-05,20:30,217.854,299.84866666666670,94571.433333333334,58.583333333333350,465.92300000000000,412.51733333333345,118.55633333333334,732.55300000000000,1520.8510000000003,0.0000000000000000,0.0000000000000000,0.21999999999999995,291.09000000000003
2018-08-05,21:00,217.874,300.02000000000004,94565.666666666672,56.890666666666668,464.37033333333341,410.81533333333329,96.484999999999957,582.92633333333333,1207.5676666666666,0.0000000000000000,0.0000000000000000,0.21566666666666673,291.31966666666665
2018-08-05,21:30,217.895,299.81100000000004,94550.699999999997,58.653666666666673,460.42033333333325,408.60699999999991,67.704000000000008,406.81033333333323,834.17899999999997,0.0000000000000000,0.0000000000000000,0.20999999999999999,291.49400000000009
2018-08-05,22:00,217.916,298.89099999999996,94536.199999999997,63.540666666666674,452.19633333333343,405.97300000000001,38.189333333333344,221.26866666666675,467.07033333333328,0.0000000000000000,0.0000000000000000,0.20999999999999999,291.61566666666675
2018-08-05,22:30,217.937,298.97999999999990,94521.966666666660,65.784000000000020,456.06899999999979,410.36033333333330,67.653999999999982,372.64400000000006,758.13133333333303,0.0000000000000000,0.0000000000000000,0.20999999999999999,291.67733333333342
2018-08-05,23:00,217.958,299.24199999999996,94516.133333333331,65.854333333333344,456.93633333333332,404.62200000000007,63.395666666666656,336.30700000000002,693.06733333333318,0.0000000000000000,0.0000000000000000,0.20999999999999999,291.71966666666674
2018-08-05,23:30,217.979,298.89566666666667,94534.466666666660,67.504333333333349,452.99366666666668,400.51766666666663,38.320666666666661,198.88866666666664,410.93499999999983,0.0000000000000000,0.0000000000000000,0.20999999999999999,291.74700000000001
2018-08-06,00:00,218.000,298.42333333333335,94578.899999999994,67.342333333333329,448.84766666666667,400.15699999999998,20.215999999999998,107.97466666666669,221.02933333333334,0.0000000000000000,0.0000000000000000,0.20999999999999999,291.75633333333343
